Menomonie, WI

12:29 PM CDT on April 23, 2018 (GMT -0500)
Menomonie

Weather History for KLUM - December, 2013

Change the Weather History Date:

Sunday, December 29, 2013

  Actual Average (KEAU) Record (KEAU)
Temperature  
Mean Temperature 7 °F -  
Max Temperature 24 °F 22 °F 47 °F (1999)
Min Temperature -11 °F 5 °F -22 °F (1917)
Degree Days  
Heating Degree Days 58    
Moisture  
Dew Point -6 °F    
Average Humidity 65    
Maximum Humidity 83    
Minimum Humidity 45    
Precipitation  
Precipitation 0.00 in - - ()
Sea Level Pressure  
Sea Level Pressure 30.16 in    
Wind  
Wind Speed 17 mph (NW)    
Max Wind Speed 28 mph    
Max Gust Speed 34 mph    
Visibility 9 miles    
Events Snow    
Averages and records for this station are not official NWS values.
T = Trace of Precipitation, MM = Missing Value Source: NWS Daily Summary

Daily Weather History Graph

Daily Weather History Graph

Search for Another Location

Airport or City:

Astronomy

Dec. 29, 2013 Rise Set
Actual Time 7:45 AM CST 4:34 PM CST
Civil Twilight 7:11 AM CST 5:08 PM CST
Nautical Twilight 6:34 AM CST 5:45 PM CST
Astronomical Twilight 5:58 AM CST 6:20 PM CST
Moon 4:25 AM CST (12/29) 2:15 PM CST (12/29)
Length of Visible Light 9h 56m
Length of Day
8h 49m
Waning Crescent, 11% of the Moon is Illuminated
Dec 29
Waning Crescent
Jan 1
New
Jan 7
First Quarter
Jan 15
Full
Jan 23
Last Quarter

Hourly Weather History & Observations

Time (CST) Temp. Windchill Dew Point Humidity Pressure Visibility Wind Dir Wind Speed Gust Speed Precip Events Conditions
12:15 AM 24.8 °F 9.3 °F 20.1 °F 82% 29.88 in 7.0 mi NNW 24.2 mph 29.9 mph N/A   Overcast
12:35 AM 24.4 °F 8.8 °F 19.9 °F 83% 29.89 in 7.0 mi NNW 24.2 mph 33.4 mph N/A   Overcast
12:55 AM 23.0 °F 6.0 °F 18.5 °F 83% 29.91 in 5.0 mi NNW 27.6 mph 34.5 mph N/A   Haze
1:15 AM 21.9 °F 6.2 °F 17.2 °F 82% 29.93 in 5.0 mi NNW 21.9 mph 34.5 mph N/A   Haze
1:35 AM 21.6 °F 6.1 °F 16.9 °F 82% 29.95 in 10.0 mi NNW 20.7 mph 27.6 mph N/A   Overcast
1:55 AM 20.7 °F 4.5 °F 14.5 °F 77% 29.96 in 7.0 mi NNW 21.9 mph 33.4 mph N/A   Overcast
2:15 AM 20.3 °F 3.7 °F 14.0 °F 77% 29.98 in 10.0 mi NNW 23.0 mph 29.9 mph N/A   Overcast
2:35 AM 20.1 °F 3.8 °F 13.5 °F 75% 29.98 in 10.0 mi NNW 21.9 mph 32.2 mph N/A   Overcast
2:55 AM 19.4 °F 4.1 °F 12.9 °F 76% 29.99 in 10.0 mi NNW 18.4 mph 27.6 mph N/A   Overcast
3:15 AM 19.2 °F 3.0 °F 12.4 °F 75% 30.00 in 10.0 mi NNW 20.7 mph 27.6 mph N/A   Overcast
3:35 AM 18.5 °F 2.4 °F 12.0 °F 76% 30.00 in 10.0 mi NNW 19.6 mph 23.0 mph N/A Snow Light Snow
3:55 AM 17.2 °F -0.4 °F 10.6 °F 75% 30.02 in 7.0 mi NW 23.0 mph 31.1 mph N/A Snow Light Snow
4:15 AM 15.6 °F -1.3 °F 9.1 °F 76% 30.03 in 10.0 mi NW 19.6 mph 27.6 mph N/A   Overcast
4:35 AM 14.7 °F -2.5 °F 8.2 °F 75% 30.04 in 10.0 mi NNW 19.6 mph 28.8 mph N/A   Overcast
4:55 AM 14.4 °F -1.5 °F 7.9 °F 75% 30.05 in 10.0 mi NW 16.1 mph 21.9 mph N/A Snow Light Snow
5:15 AM 13.6 °F -3.9 °F 7.5 °F 77% 30.06 in 7.0 mi NNW 19.6 mph 25.3 mph N/A Snow Light Snow
5:35 AM 13.1 °F -0.7 °F 7.2 °F 77% 30.08 in 10.0 mi NNW 11.5 mph 18.4 mph N/A Snow Light Snow
5:55 AM 12.2 °F -4.3 °F 5.9 °F 76% 30.09 in 10.0 mi NW 16.1 mph - N/A   Overcast
6:15 AM 11.1 °F -6.2 °F 5.0 °F 76% 30.11 in 10.0 mi NNW 17.3 mph 21.9 mph N/A   Overcast
6:35 AM 10.2 °F -8.4 °F 4.3 °F 77% 30.12 in 10.0 mi NW 19.6 mph 23.0 mph N/A   Overcast
6:55 AM 9.5 °F -9.8 °F 3.7 °F 77% 30.13 in 7.0 mi NNW 20.7 mph 26.5 mph N/A Snow Light Snow
7:15 AM 9.5 °F -5.9 °F 3.6 °F 77% 30.15 in 7.0 mi NW 12.7 mph 24.2 mph N/A   Overcast
7:35 AM 8.4 °F -9.2 °F 2.3 °F 76% 30.16 in 7.0 mi NNW 16.1 mph 24.2 mph N/A   Overcast
7:55 AM 7.7 °F -9.5 °F 1.4 °F 75% 30.16 in 10.0 mi NW 15.0 mph - N/A   Overcast
8:15 AM 6.8 °F -10.7 °F -0.2 °F 73% 30.18 in 10.0 mi WNW 15.0 mph 21.9 mph N/A   Overcast
8:35 AM 5.7 °F -12.6 °F -1.5 °F 72% 30.18 in 10.0 mi NW 16.1 mph 20.7 mph N/A   Overcast
8:55 AM 4.6 °F -12.0 °F -2.4 °F 73% 30.18 in 10.0 mi NNW 12.7 mph - N/A   Overcast
9:15 AM 3.9 °F -13.0 °F -3.6 °F 71% 30.19 in 7.0 mi WNW 12.7 mph - N/A   Overcast
9:35 AM 3.4 °F -13.6 °F -4.0 °F 71% 30.19 in 10.0 mi NW 12.7 mph - N/A   Overcast
9:55 AM 2.3 °F -16.4 °F -5.3 °F 71% 30.20 in 10.0 mi NNW 15.0 mph 23.0 mph N/A   Overcast
10:15 AM 1.8 °F -17.8 °F -6.7 °F 68% 30.21 in 10.0 mi NW 16.1 mph - N/A   Overcast
10:35 AM 1.0 °F -18.7 °F -7.2 °F 68% 30.21 in 7.0 mi NNW 16.1 mph 24.2 mph N/A   Overcast
10:55 AM 1.2 °F -16.4 °F -8.0 °F 65% 30.22 in 10.0 mi NW 12.7 mph - N/A   Overcast
11:15 AM 2.1 °F -16.0 °F -8.0 °F 63% 30.22 in 10.0 mi WNW 13.8 mph 17.3 mph N/A   Overcast
11:35 AM 1.4 °F -17.6 °F -9.0 °F 62% 30.21 in 10.0 mi NW 15.0 mph 21.9 mph N/A   Scattered Clouds
11:55 AM 1.8 °F -15.7 °F -8.7 °F 62% 30.20 in 10.0 mi NW 12.7 mph 19.6 mph N/A   Scattered Clouds
12:15 PM 2.3 °F -15.0 °F -9.4 °F 58% 30.20 in 10.0 mi WNW 12.7 mph 19.6 mph N/A   Scattered Clouds
12:35 PM 1.8 °F -18.4 °F -10.3 °F 57% 30.20 in 10.0 mi WNW 17.3 mph - N/A   Clear
12:55 PM 1.2 °F -17.8 °F -10.7 °F 58% 30.20 in 10.0 mi NW 15.0 mph 19.6 mph N/A   Clear
1:15 PM 1.2 °F -19.1 °F -11.7 °F 55% 30.19 in 10.0 mi NW 17.3 mph - N/A   Scattered Clouds
1:35 PM 1.6 °F -17.3 °F -13.0 °F 51% 30.19 in 10.0 mi WNW 15.0 mph 19.6 mph N/A   Scattered Clouds
1:55 PM 1.9 °F -18.1 °F -13.7 °F 48% 30.20 in 10.0 mi NW 17.3 mph - N/A   Clear
2:15 PM 1.9 °F -16.9 °F -13.0 °F 50% 30.20 in 10.0 mi WNW 15.0 mph - N/A   Scattered Clouds
2:35 PM 1.4 °F -16.9 °F -13.9 °F 49% 30.20 in 10.0 mi WNW 13.8 mph 19.6 mph N/A   Scattered Clouds
2:55 PM 0.7 °F -17.8 °F -14.8 °F 48% 30.21 in 10.0 mi WNW 13.8 mph - N/A   Clear
3:15 PM 0.5 °F -16.5 °F -15.0 °F 48% 30.21 in 10.0 mi WNW 11.5 mph - N/A   Clear
3:35 PM 0.1 °F -16.9 °F -15.5 °F 48% 30.21 in 10.0 mi WNW 11.5 mph - N/A   Clear
3:55 PM -0.4 °F -15.7 °F -16.2 °F 47% 30.22 in 10.0 mi WNW 9.2 mph - N/A   Clear
4:15 PM -1.3 °F -18.7 °F -17.1 °F 47% 30.22 in 10.0 mi West 11.5 mph - N/A   Clear
4:35 PM -1.7 °F -17.3 °F -18.2 °F 45% 30.23 in 10.0 mi WNW 9.2 mph - N/A   Clear
4:55 PM -2.4 °F -17.1 °F -17.9 °F 48% 30.23 in 10.0 mi WNW 8.1 mph - N/A   Clear
5:15 PM -3.1 °F -19.1 °F -17.0 °F 52% 30.23 in 10.0 mi West 9.2 mph - N/A   Clear
5:35 PM -4.0 °F -20.2 °F -17.1 °F 53% 30.24 in 10.0 mi West 9.2 mph - N/A   Clear
5:55 PM -4.7 °F -22.1 °F -17.0 °F 56% 30.24 in 10.0 mi West 10.4 mph - N/A   Clear
6:15 PM -5.1 °F -21.5 °F -17.5 °F 55% 30.24 in 10.0 mi WNW 9.2 mph - N/A   Clear
6:35 PM -5.4 °F -20.8 °F -17.9 °F 55% 30.24 in 10.0 mi West 8.1 mph - N/A   Clear
6:55 PM -6.0 °F -16.9 °F -17.9 °F 57% 30.24 in 10.0 mi WNW 4.6 mph - N/A   Clear
7:15 PM -6.7 °F -21.0 °F -18.4 °F 57% 30.24 in 10.0 mi WNW 6.9 mph - N/A   Clear
7:35 PM -6.7 °F -19.5 °F -18.8 °F 56% 30.25 in 10.0 mi WNW 5.8 mph - N/A   Clear
7:55 PM -7.2 °F -16.1 °F -19.3 °F 56% 30.25 in 10.0 mi WNW 3.5 mph - N/A   Clear
8:15 PM -7.8 °F -19.0 °F -18.4 °F 60% 30.25 in 10.0 mi West 4.6 mph - N/A   Clear
8:35 PM -8.5 °F -19.8 °F -18.8 °F 61% 30.25 in 10.0 mi West 4.6 mph - N/A   Clear
8:55 PM -8.5 °F -19.8 °F -19.1 °F 60% 30.25 in 10.0 mi West 4.6 mph - N/A   Clear
9:15 PM -9.2 °F -20.7 °F -19.3 °F 61% 30.25 in 10.0 mi West 4.6 mph - N/A   Clear
9:35 PM -9.0 °F -20.4 °F -19.7 °F 60% 30.25 in 10.0 mi WSW 4.6 mph - N/A   Clear
9:55 PM -9.4 °F -22.7 °F -19.7 °F 61% 30.26 in 10.0 mi West 5.8 mph - N/A   Clear
10:15 PM -9.8 °F -24.7 °F -20.2 °F 60% 30.26 in 10.0 mi West 6.9 mph - N/A   Clear
10:35 PM -10.3 °F -23.8 °F -20.0 °F 62% 30.26 in 10.0 mi West 5.8 mph - N/A   Clear
10:55 PM -10.1 °F -23.6 °F -20.0 °F 62% 30.26 in 10.0 mi West 5.8 mph - N/A   Clear
11:15 PM -10.7 °F -20.0 °F -20.2 °F 63% 30.26 in 10.0 mi West 3.5 mph - N/A   Clear
11:35 PM -10.8 °F -20.2 °F -20.2 °F 63% 30.27 in 10.0 mi West 3.5 mph - N/A   Clear
11:55 PM -11.7 °F -21.3 °F -20.7 °F 64% 30.27 in 10.0 mi West 3.5 mph - N/A   Clear